sat.trackr.live / text

‹ back to catalog

YAOGAN-36 05C

NORAD 57456 · 2023-106E

PAYLOAD ACTIVE UNKNOWN

§ Identity

Operator
Country
PRC
Launch date
2023-07-26
Launch site
XICLF
Launch vehicle
Mass (kg)
RCS (m²)

External: N2YO · Heavens-Above · Gunter

§ Orbital elements

Epoch: 2026-09-21T21:57:55.547136Z

Period
94.90 min
Inclination
34.9923°
Eccentricity
0.0001271
Mean motion
15.17424144 rev/d
Perigee alt
512.8 km
Apogee alt
514.5 km
Semi-major
6,891.8 km
B*
1.9415e-4
RAAN
197.7861°
Arg perigee
180.1053°
Mean anomaly
179.9660°
Rev number
17,556

§ Raw data

YAOGAN-36 05C1 57456U 23106E   26264.91522624  .00003941  00000+0  19415-3 0  99992 57456  34.9923 197.7861 0001271 180.1053 179.9660 15.17424144175562

JSON: /api/v1/satellites/57456 · /tle

For live sub-satellite position, see the globe view (requires WebGL).

§ Visibility from observer

Set your observer location to see the next 7 days of passes ≥ 10°. The values pass through the URL so the page stays shareable.

No JS? Fill the form by hand. The geolocation button needs JavaScript.